TimeEDT,TemperatureF,Dew PointF,Humidity,Sea Level PressureIn,VisibilityMPH,Wind Direction,Wind SpeedMPH,Gust SpeedMPH,PrecipitationIn,Events,Conditions,WindDirDegrees,DateUTC
12:15 AM,48.2,48.2,100,30.35,7.0,Calm,Calm,-,N/A,,Clear,0,2013-04-27 04:15:00
12:35 AM,48.2,48.2,100,30.36,7.0,Calm,Calm,-,N/A,,Clear,0,2013-04-27 04:35:00
12:55 AM,48.2,48.2,100,30.36,7.0,Calm,Calm,-,N/A,,Clear,0,2013-04-27 04:55:00
1:15 AM,48.2,48.2,100,30.35,7.0,Calm,Calm,-,N/A,,Clear,0,2013-04-27 05:15:00
1:35 AM,46.4,46.4,100,30.35,7.0,Calm,Calm,-,N/A,,Clear,0,2013-04-27 05:35:00
1:55 AM,48.2,48.2,100,30.35,7.0,Calm,Calm,-,N/A,,Clear,0,2013-04-27 05:55:00
2:15 AM,48.2,48.2,100,30.35,7.0,Calm,Calm,-,N/A,,Clear,0,2013-04-27 06:15:00
2:35 AM,48.2,48.2,100,30.35,7.0,Calm,Calm,-,N/A,,Clear,0,2013-04-27 06:35:00
2:55 AM,50.0,50.0,100,30.34,7.0,Calm,Calm,-,N/A,,Clear,0,2013-04-27 06:55:00
3:15 AM,51.8,51.8,100,30.34,7.0,Calm,Calm,-,N/A,,Scattered Clouds,0,2013-04-27 07:15:00
3:35 AM,51.8,51.8,100,30.33,7.0,North,3.5,-,N/A,,Scattered Clouds,10,2013-04-27 07:35:00
3:55 AM,51.8,51.8,100,30.33,7.0,NE,4.6,-,N/A,,Scattered Clouds,40,2013-04-27 07:55:00
4:15 AM,51.8,51.8,100,30.35,7.0,Calm,Calm,-,N/A,,Scattered Clouds,0,2013-04-27 08:15:00
4:55 AM,53.6,53.6,100,30.33,7.0,NNE,4.6,-,N/A,,Clear,30,2013-04-27 08:55:00
5:15 AM,53.6,53.6,100,30.34,7.0,Calm,Calm,-,N/A,,Clear,0,2013-04-27 09:15:00
5:35 AM,53.6,53.6,100,30.33,7.0,NE,3.5,-,N/A,,Clear,40,2013-04-27 09:35:00
5:55 AM,53.6,53.6,100,30.32,7.0,Calm,Calm,-,N/A,,Clear,0,2013-04-27 09:55:00
6:15 AM,53.6,53.6,100,30.32,7.0,Calm,Calm,-,N/A,,Clear,0,2013-04-27 10:15:00
7:35 AM,53.6,53.6,100,30.35,5.0,Calm,Calm,-,N/A,,Overcast,0,2013-04-27 11:35:00
7:55 AM,55.4,55.4,100,30.36,5.0,Calm,Calm,-,N/A,,Overcast,0,2013-04-27 11:55:00
8:15 AM,55.4,55.4,100,30.36,5.0,NNE,3.5,-,N/A,,Mostly Cloudy,30,2013-04-27 12:15:00
8:35 AM,55.4,55.4,100,30.37,5.0,NE,3.5,-,N/A,,Mostly Cloudy,40,2013-04-27 12:35:00
8:55 AM,59.0,57.2,94,30.36,5.0,NNE,3.5,-,N/A,,Overcast,30,2013-04-27 12:55:00
9:15 AM,59.0,55.4,88,30.37,7.0,NNE,3.5,-,N/A,,Mostly Cloudy,30,2013-04-27 13:15:00
9:35 AM,60.8,55.4,82,30.37,5.0,NE,3.5,-,N/A,,Haze,50,2013-04-27 13:35:00
9:55 AM,62.6,53.6,72,30.36,7.0,NE,4.6,-,N/A,,Mostly Cloudy,50,2013-04-27 13:55:00
10:15 AM,64.4,53.6,68,30.36,7.0,NE,5.8,-,N/A,,Scattered Clouds,40,2013-04-27 14:15:00
10:35 AM,68.0,51.8,56,30.35,7.0,ENE,5.8,-,N/A,,Mostly Cloudy,60,2013-04-27 14:35:00
10:55 AM,69.8,51.8,53,30.35,5.0,East,5.8,-,N/A,,Haze,80,2013-04-27 14:55:00
11:15 AM,69.8,46.4,43,30.34,5.0,East,5.8,-,N/A,,Haze,80,2013-04-27 15:15:00
11:35 AM,71.6,46.4,41,30.34,7.0,NE,5.8,-,N/A,,Clear,40,2013-04-27 15:35:00
11:55 AM,71.6,44.6,38,30.35,5.0,East,3.5,-,N/A,,Haze,100,2013-04-27 15:55:00
12:15 PM,73.4,46.4,38,30.34,5.0,East,4.6,-,N/A,,Haze,90,2013-04-27 16:15:00
12:35 PM,71.6,44.6,38,30.33,5.0,East,6.9,-,N/A,,Haze,80,2013-04-27 16:35:00
12:55 PM,73.4,44.6,36,30.32,7.0,East,6.9,-,N/A,,Clear,90,2013-04-27 16:55:00
1:15 PM,73.4,42.8,33,30.31,7.0,ESE,8.1,-,N/A,,Clear,120,2013-04-27 17:15:00
1:35 PM,73.4,44.6,36,30.30,7.0,ENE,9.2,-,N/A,,Clear,70,2013-04-27 17:35:00
1:55 PM,73.4,42.8,33,30.31,7.0,East,5.8,-,N/A,,Clear,90,2013-04-27 17:55:00
2:15 PM,73.4,42.8,33,30.31,7.0,East,6.9,-,N/A,,Clear,80,2013-04-27 18:15:00
2:35 PM,73.4,42.8,33,30.31,5.0,ESE,9.2,-,N/A,,Haze,120,2013-04-27 18:35:00
2:55 PM,73.4,42.8,33,30.30,7.0,ESE,5.8,-,N/A,,Mostly Cloudy,120,2013-04-27 18:55:00
3:15 PM,75.2,44.6,34,30.30,5.0,ESE,6.9,-,N/A,,Haze,110,2013-04-27 19:15:00
3:35 PM,73.4,42.8,33,30.30,5.0,ESE,5.8,-,N/A,,Haze,120,2013-04-27 19:35:00
3:55 PM,73.4,42.8,33,30.29,7.0,ESE,4.6,-,N/A,,Scattered Clouds,110,2013-04-27 19:55:00
4:15 PM,71.6,42.8,35,30.28,7.0,SE,8.1,-,N/A,,Clear,130,2013-04-27 20:15:00
4:35 PM,69.8,42.8,38,30.28,7.0,SE,8.1,-,N/A,,Clear,130,2013-04-27 20:35:00
4:55 PM,69.8,42.8,38,30.28,7.0,East,6.9,-,N/A,,Scattered Clouds,100,2013-04-27 20:55:00
5:15 PM,69.8,42.8,38,30.29,7.0,ESE,6.9,-,N/A,,Mostly Cloudy,120,2013-04-27 21:15:00
5:35 PM,68.0,42.8,40,30.29,7.0,ESE,6.9,-,N/A,,Mostly Cloudy,120,2013-04-27 21:35:00
5:55 PM,68.0,42.8,40,30.30,5.0,ESE,3.5,-,N/A,,Haze,110,2013-04-27 21:55:00
6:15 PM,66.2,42.8,43,30.31,7.0,ESE,3.5,-,N/A,,Overcast,120,2013-04-27 22:15:00
6:35 PM,66.2,42.8,43,30.31,10.0,Calm,Calm,-,N/A,Rain,Light Rain,0,2013-04-27 22:35:00
6:55 PM,64.4,41.0,42,30.30,5.0,Calm,Calm,-,N/A,,Haze,0,2013-04-27 22:55:00
7:15 PM,64.4,41.0,42,30.30,7.0,ENE,3.5,-,N/A,,Overcast,60,2013-04-27 23:15:00
7:35 PM,64.4,41.0,42,30.30,10.0,ENE,4.6,-,N/A,,Mostly Cloudy,70,2013-04-27 23:35:00
7:55 PM,62.6,41.0,45,30.29,10.0,NE,4.6,-,N/A,,Scattered Clouds,50,2013-04-27 23:55:00
8:15 PM,62.6,42.8,48,30.29,10.0,ENE,4.6,-,N/A,,Clear,60,2013-04-28 00:15:00
8:35 PM,60.8,44.6,55,30.29,7.0,East,3.5,-,N/A,,Clear,90,2013-04-28 00:35:00
8:55 PM,60.8,44.6,55,30.28,10.0,Calm,Calm,-,N/A,,Clear,0,2013-04-28 00:55:00
9:15 PM,59.0,44.6,59,30.29,7.0,Calm,Calm,-,N/A,,Scattered Clouds,0,2013-04-28 01:15:00
9:35 PM,55.4,48.2,77,30.28,7.0,Calm,Calm,-,N/A,,Mostly Cloudy,0,2013-04-28 01:35:00
9:55 PM,55.4,50.0,82,30.29,10.0,Calm,Calm,-,N/A,,Overcast,0,2013-04-28 01:55:00
10:15 PM,55.4,50.0,82,30.29,7.0,Calm,Calm,-,N/A,,Overcast,0,2013-04-28 02:15:00
10:35 PM,55.4,50.0,82,30.29,7.0,Calm,Calm,-,N/A,,Overcast,0,2013-04-28 02:35:00
10:55 PM,55.4,50.0,82,30.29,7.0,Calm,Calm,-,N/A,,Overcast,0,2013-04-28 02:55:00
11:15 PM,55.4,50.0,82,30.27,7.0,Calm,Calm,-,N/A,,Overcast,0,2013-04-28 03:15:00
11:35 PM,55.4,51.8,88,30.27,7.0,Calm,Calm,-,N/A,,Overcast,0,2013-04-28 03:35:00
11:55 PM,55.4,51.8,88,30.26,7.0,Calm,Calm,-,N/A,,Mostly Cloudy,0,2013-04-28 03:55:00